Change the Weather History Date:

Sunday, October 7, 2012

  Actual Average Record
Temperature  
Mean Temperature 82 °F -  
Max Temperature 88 °F 87 °F 92 °F (1941)
Min Temperature 75 °F 69 °F 59 °F (1942)
Cooling Degree Days 16    
Growing Degree Days 32 (Base 50)    
Moisture  
Dew Point 74 °F    
Average Humidity 84    
Maximum Humidity 93    
Minimum Humidity 68    
Precipitation  
Precipitation 0.32 in - - ()
Sea Level Pressure  
Sea Level Pressure 29.95 in    
Wind  
Wind Speed 6 mph (NE)    
Max Wind Speed 13 mph    
Max Gust Speed -    
Visibility 9 miles    
Events Rain , Thunderstorm    
Averages and records for this station are not official NWS values.
T = Trace of Precipitation, MM = Missing Value Source: NWS Daily Summary

Daily Weather History Graph

Daily Weather History Graph

Search for Another Location

Airport or City:

Trip Planner

Search our weather history database for the weather conditions in past years. The results will help you decide how hot, cold, wet, or windy it might be!

Date:

Astronomy

Oct. 07, 2012 Rise Set
Actual Time 7:16 AM EDT 7:01 PM EDT
Civil Twilight 6:53 AM EDT 7:24 PM EDT
Nautical Twilight 6:26 AM EDT 7:51 PM EDT
Astronomical Twilight 6:00 AM EDT 8:17 PM EDT
Moon No Moon Rise 1:28 PM EDT (10/7)
Length of Visible Light 12h 30m
Length of Day
11h 44m
Waning Gibbous, 56% of the Moon is Illuminated
Oct 7
Waning Gibbous
Oct 8
Last Quarter
Oct 15
New
Oct 21
First Quarter
Oct 29
Full

Hourly Weather History & Observations

Time (EDT) Temp. Heat Index Dew Point Humidity Pressure Visibility Wind Dir Wind Speed Gust Speed Precip Events Conditions
12:00 AM 80.6 °F 85.4 °F 73.4 °F 79% 29.94 in 10.0 mi North 3.5 mph - N/A Thunderstorm Thunderstorm
12:15 AM 80.6 °F 85.4 °F 73.4 °F 79% 29.95 in 10.0 mi North 10.4 mph - N/A Thunderstorm Partly Cloudy
12:55 AM 79.2 °F - 74.3 °F 85% 29.94 in 10.0 mi NE 5.8 mph - N/A   Clear
1:55 AM 78.4 °F - 74.1 °F 87% 29.94 in 10.0 mi North 6.9 mph - N/A   Partly Cloudy
2:55 AM 76.8 °F - 71.4 °F 83% 29.93 in 10.0 mi NNE 6.9 mph - N/A   Clear
3:55 AM 76.6 °F - 72.0 °F 85% 29.91 in 10.0 mi Calm Calm - N/A   Clear
4:55 AM 75.9 °F - 72.9 °F 90% 29.89 in 10.0 mi East 3.5 mph - N/A   Partly Cloudy
5:55 AM 75.9 °F - 73.4 °F 92% 29.89 in 10.0 mi Calm Calm - N/A   Clear
6:55 AM 75.9 °F - 73.8 °F 93% 29.91 in 10.0 mi NW 4.6 mph - N/A   Clear
7:55 AM 76.8 °F - 74.1 °F 91% 29.93 in 10.0 mi NNW 8.1 mph - N/A   Partly Cloudy
8:55 AM 79.7 °F - 76.1 °F 89% 29.94 in 10.0 mi North 5.8 mph - N/A   Clear
9:55 AM 80.1 °F 85.1 °F 75.2 °F 85% 29.97 in 10.0 mi East 8.1 mph - N/A   Partly Cloudy
9:58 AM 78.8 °F - 75.2 °F 89% 29.97 in 5.0 mi East 6.9 mph - N/A Rain Rain
10:01 AM 78.8 °F - 75.2 °F 89% 29.97 in 1.5 mi Calm Calm - N/A Rain Heavy Rain
10:03 AM 78.8 °F - 73.4 °F 83% 29.97 in 1.2 mi ESE 3.5 mph - N/A Rain Heavy Rain
10:05 AM 78.8 °F - 75.2 °F 89% 29.97 in 1.2 mi Calm Calm - N/A Rain Heavy Rain
10:08 AM 78.8 °F - 75.2 °F 89% 29.96 in 1.2 mi ESE 3.5 mph - N/A Rain Light Rain
10:10 AM 78.8 °F - 75.2 °F 89% 29.96 in 2.5 mi ESE 3.5 mph - N/A Rain Light Rain
10:29 AM 80.6 °F 87.1 °F 77.0 °F 89% 29.97 in 10.0 mi NNE 3.5 mph - N/A   Partly Cloudy
10:55 AM 83.1 °F 90.7 °F 75.4 °F 77% 29.97 in 10.0 mi NE 6.9 mph - 0.28 in   Clear
11:55 AM 85.6 °F 96.8 °F 77.2 °F 76% 29.97 in 10.0 mi NE 8.1 mph - N/A   Partly Cloudy
12:55 PM 85.3 °F 94.6 °F 75.9 °F 73% 29.96 in 10.0 mi ENE 9.2 mph - N/A   Clear
1:55 PM 88.0 °F 99.1 °F 76.1 °F 68% 29.94 in 10.0 mi ENE 11.5 mph - N/A   Scattered Clouds
2:55 PM 84.6 °F 92.8 °F 75.2 °F 73% 29.92 in 10.0 mi East 11.5 mph - N/A   Clear
3:22 PM 82.4 °F 88.2 °F 73.4 °F 74% 29.92 in 10.0 mi NE 12.7 mph - N/A   Mostly Cloudy
3:33 PM 82.4 °F 89.5 °F 75.2 °F 79% 29.91 in 10.0 mi ENE 11.5 mph - N/A   Scattered Clouds
3:55 PM 82.0 °F 88.6 °F 75.0 °F 79% 29.92 in 10.0 mi ENE 6.9 mph - N/A   Partly Cloudy
4:55 PM 80.4 °F 86.0 °F 75.4 °F 85% 29.92 in 10.0 mi North 9.2 mph - N/A   Partly Cloudy
5:32 PM 82.4 °F 89.5 °F 75.2 °F 79% 29.92 in 10.0 mi NE 9.2 mph - N/A Rain Light Rain
5:46 PM 82.4 °F 89.5 °F 75.2 °F 79% 29.92 in 10.0 mi NE 6.9 mph - N/A   Partly Cloudy
5:55 PM 81.5 °F 88.3 °F 75.9 °F 83% 29.93 in 10.0 mi NE 6.9 mph - 0.00 in   Partly Cloudy
6:55 PM 80.8 °F 84.9 °F 72.0 °F 74% 29.94 in 10.0 mi NE 10.4 mph - N/A   Clear
7:55 PM 79.5 °F - 71.4 °F 76% 29.95 in 10.0 mi North 4.6 mph - N/A   Clear
8:28 PM 78.8 °F - 73.4 °F 83% 29.96 in 10.0 mi East 6.9 mph - N/A Rain Light Rain
8:30 PM 78.8 °F - 73.4 °F 83% 29.96 in 9.0 mi East 9.2 mph - N/A Rain Light Rain
8:49 PM 77.0 °F - 73.4 °F 89% 29.96 in 10.0 mi ENE 8.1 mph - N/A   Partly Cloudy
8:55 PM 77.4 °F - 73.0 °F 86% 29.96 in 10.0 mi ENE 6.9 mph - 0.04 in   Partly Cloudy
9:55 PM 79.3 °F - 75.6 °F 88% 29.98 in 10.0 mi ENE 5.8 mph - N/A   Clear
10:21 PM 80.6 °F 86.2 °F 75.2 °F 84% 29.99 in 10.0 mi ESE 6.9 mph - N/A   Light Drizzle
10:38 PM 78.8 °F - 75.2 °F 89% 29.98 in 10.0 mi East 4.6 mph - N/A   Clear
10:55 PM 79.2 °F - 75.0 °F 87% 29.98 in 10.0 mi East 3.5 mph - 0.00 in   Clear
11:55 PM 79.2 °F - 75.2 °F 88% 29.96 in 10.0 mi East 5.8 mph - N/A   Clear